📊 Raw Sensor Data
Showing records 38576 to 38600 of 84,931 total
| ID | Distance (ft) | Battery V | Battery A | Int Temp (°F) | Int Humid (%) | Ext Temp (°F) | Solar V | RSSI | SNR | Time Stamp |
|---|---|---|---|---|---|---|---|---|---|---|
| 46368 | 15.5 | 3.99 | 0 | 78 | 43 | 77 | 5.10 | -66 | 8 | 07/15/2025 11:30 AM |
| 46367 | 15.5 | 3.99 | 0 | 77 | 43 | 78 | 5.10 | -65 | 7 | 07/15/2025 11:15 AM |
| 46366 | 15.5 | 3.99 | 0 | 76 | 43 | 77 | 5.10 | -65 | 7 | 07/15/2025 11:00 AM |
| 46365 | 15.5 | 3.99 | 0 | 76 | 43 | 75 | 5.10 | -69 | 7 | 07/15/2025 10:45 AM |
| 46364 | 15.5 | 3.99 | 0 | 74 | 43 | 75 | 5.10 | -64 | 8 | 07/15/2025 10:30 AM |
| 46363 | 15.5 | 4.14 | 0 | 74 | 43 | 73 | 5.10 | -65 | 8 | 07/15/2025 10:15 AM |
| 46362 | 15.5 | 3.99 | 0 | 73 | 43 | 75 | 5.10 | -64 | 8 | 07/15/2025 10:00 AM |
| 46361 | 15.5 | 3.99 | 0 | 72 | 43 | 73 | 5.10 | -65 | 8 | 07/15/2025 09:45 AM |
| 46360 | 15.5 | 3.99 | 0 | 71 | 43 | 74 | 5.10 | -65 | 8 | 07/15/2025 09:30 AM |
| 46359 | 15.5 | 3.99 | 0 | 70 | 43 | 73 | 5.10 | -65 | 8 | 07/15/2025 09:15 AM |
| 46358 | 15.5 | 3.99 | 0 | 68 | 44 | 73 | 5.10 | -65 | 8 | 07/15/2025 09:00 AM |
| 46357 | 15.5 | 3.99 | 0 | 67 | 44 | 69 | 5.10 | -65 | 7 | 07/15/2025 08:45 AM |
| 46356 | 15.4 | 4.07 | 0 | 66 | 44 | 68 | 5.10 | -65 | 8 | 07/15/2025 08:30 AM |
| 46355 | 15.4 | 3.99 | 0 | 65 | 44 | 68 | 5.10 | -63 | 8 | 07/15/2025 08:15 AM |
| 46354 | 15.4 | 3.99 | 0 | 64 | 44 | 69 | 5.10 | -65 | 7 | 07/15/2025 08:00 AM |
| 46353 | 15.4 | 4.00 | 0 | 63 | 43 | 65 | 5.10 | -65 | 8 | 07/15/2025 07:45 AM |
| 46352 | 15.4 | 4.00 | 0 | 62 | 43 | 64 | 5.10 | -64 | 7 | 07/15/2025 07:30 AM |
| 46351 | 15.4 | 4.09 | 0 | 61 | 43 | 65 | 4.50 | -65 | 7 | 07/15/2025 07:15 AM |
| 46350 | 15.3 | 4.03 | 5 | 60 | 42 | 64 | 4.50 | -66 | 8 | 07/15/2025 07:00 AM |
| 46349 | 15.3 | 4.03 | 0 | 58 | 42 | 63 | 4.50 | -65 | 8 | 07/15/2025 06:45 AM |
| 46348 | 15.3 | 3.89 | 0 | 57 | 43 | 62 | 4.60 | -65 | 7 | 07/15/2025 06:30 AM |
| 46347 | 15.2 | 3.86 | 0 | 55 | 43 | 59 | 4.50 | -64 | 8 | 07/15/2025 06:15 AM |
| 46346 | 15.2 | 3.92 | -30 | 55 | 43 | 56 | 4.40 | -64 | 8 | 07/15/2025 06:00 AM |
| 46345 | 15.2 | 4.01 | -5 | 55 | 43 | 56 | 1.90 | -64 | 9 | 07/15/2025 05:45 AM |
| 46344 | 15.2 | 3.94 | -5 | 55 | 43 | 56 | 0.00 | -65 | 9 | 07/15/2025 05:30 AM |